This website uses _ga and _gid cookies owned by Google Analytics, persistent for 2 years, to enable the single visit control function with a view to allowing you to browse around the website. If you continue browsing, we will assume you agree with their usage. You may revoke your consent and obtain further information by consulting our Cookies Policy.

Imag

Imag g2 track10843102IMAG G2 TRACK 4000 WW MFL GRH.

Multi-directional three-phase track projector model IMAG G2 TRACK 4000 WW MFL GRH., LAMP brand. Manufactured with aluminium die casting and polycarbonate finished in texturized graphite. Passive dissipation for thermal management. Model for COB LED, with warm white colour temperature and control gear included. High quality aluminium Medium Flood reflector. Insulation class II.
Overture:
24º
Power:
30W
Color temperature:
3000K
CRI:
80
Lumen output:
3600
Gear:
Non-adjustable
Finishing:
Texturised graphite RAL 7021

Features

Certificates

Photometric data

Do you need more information?

Product variants

CodeWKCRIlm outGearFinishinglmGear
1084309218º30W3000K803489-Graphite4000Non-adjustable
1084309018º30W3000K803489-Texturised matt white RAL 90164000Non-adjustable
1084308233º26W3000K802662-Graphite3000Non-adjustable
1084308033º26W3000K802662-Texturised matt white RAL 90163000Non-adjustable
1084307222º26W3000K802646-Graphite3000Non-adjustable
1084307022º26W3000K802646-Texturised matt white RAL 90163000Non-adjustable
1084306216º26W3000K802493-Graphite3000Non-adjustable
1084306016º26W3000K802493-Texturised matt white RAL 90163000Non-adjustable
1084305233º15W3000K801798-Graphite2000Non-adjustable
1084305033º15W3000K801798-Texturised matt white RAL 90162000Non-adjustable
1084304222º15W3000K801787-Graphite2000Non-adjustable
1084304022º15W3000K801787-Texturised matt white RAL 90162000Non-adjustable
1084303216º15W3000K801684-Graphite2000Non-adjustable
1084303016º15W3000K801684-Texturised matt white RAL 90162000Non-adjustable
1084311235º30W3000K803689-Graphite4000Non-adjustable
1084311035º30W3000K803689-Texturised matt white RAL 90164000Non-adjustable
1084310224º30W3000K803600-Graphite4000Non-adjustable
1084310024º30W3000K803600-Texturised matt white RAL 90164000Non-adjustable
1084328236º44W3000K804783-Graphite5000Non-adjustable
1084328036º44W3000K804783-Texturised matt white RAL 90165000Non-adjustable
1084327226º44W3000K804795-Graphite5000Non-adjustable
1084327026º44W3000K804795-Texturised matt white RAL 90165000Non-adjustable
1084326220º44W3000K804699-Graphite5000Non-adjustable
1084326020º44W3000K804699-Texturised matt white RAL 90165000Non-adjustable
1084355256º30W3000K803732-Graphite4000Non-adjustable
1084355056º30W3000K803732-Texturised matt white RAL 90164000Non-adjustable
1084353257º26W3000K802984-Graphite3000Non-adjustable
1084353057º26W3000K802984-Texturised matt white RAL 90163000Non-adjustable
1084351257º15W3000K802016-Graphite2000Non-adjustable
1084351057º15W3000K802016-Texturised matt white RAL 90162000Non-adjustable
1084409218º30W4000K803304-Graphite4000Non-adjustable
1084409018º30W4000K803304-Texturised matt white RAL 90164000Non-adjustable
1084408233º26W4000K802859-Graphite3000Non-adjustable
1084408033º26W4000K802859-Texturised matt white RAL 90163000Non-adjustable
1084407222º26W4000K802845-Graphite3000Non-adjustable
1084407022º26W4000K802845-Texturised matt white RAL 90163000Non-adjustable
1084406216º26W4000K802715-Graphite3000Non-adjustable
1084406016º26W4000K802715-Texturised matt white RAL 90163000Non-adjustable
1084405233º15W4000K801922-Graphite2000Non-adjustable
1084405033º15W4000K801922-Texturised matt white RAL 90162000Non-adjustable
1084404222º15W4000K801910-Graphite2000Non-adjustable
1084404022º15W4000K801910-Texturised matt white RAL 90162000Non-adjustable
1084403216º15W4000K801800-Graphite2000Non-adjustable
1084403016º15W4000K801800-Texturised matt white RAL 90162000Non-adjustable
1084456256º44W4000K804840-Graphite5000Non-adjustable
1084456056º44W4000K804840-Texturised matt white RAL 90165000Non-adjustable
1084455256º30W4000K803688-Graphite4000Non-adjustable
1084455056º30W4000K803688-Texturised matt white RAL 90164000Non-adjustable
1084453257º26W4000K803108-Graphite3000Non-adjustable
1084453057º26W4000K803108-Texturised matt white RAL 90163000Non-adjustable
1084451257º15W4000K802100-Graphite2000Non-adjustable
1084451057º15W4000K802100-Texturised matt white RAL 90162000Non-adjustable
1084428236º44W4000K804568-Graphite5000Non-adjustable
1084428036º44W4000K804568-Texturised matt white RAL 90165000Non-adjustable
1084427226º44W4000K804526-Graphite5000Non-adjustable
1084427026º44W4000K804526-Texturised matt white RAL 90165000Non-adjustable
1084426220º44W4000K804336-Graphite5000Non-adjustable
1084426020º44W4000K804336-Texturised matt white RAL 90165000Non-adjustable
1084411235º30W4000K803481-Graphite4000Non-adjustable
1084411035º30W4000K803481-Texturised matt white RAL 90164000Non-adjustable
1084410224º30W4000K803449-Graphite4000Non-adjustable
1084410024º30W4000K803449-Texturised matt white RAL 90164000Non-adjustable
1084356256º44W3000K804845-Graphite5000Non-adjustable
1084356056º44W3000K804845-Texturised matt white RAL 90165000Non-adjustable
1084325033º30W3000K902822-White3000Non-adjustable
1084324222º30W3000K902805-Graphite3000Non-adjustable
1084324022º30W3000K902805-White3000Non-adjustable
1084323216º30W3000K902643-Graphite3000Non-adjustable
1084323016º30W3000K902643-White3000Non-adjustable
1084321222º19W3000K901945-Graphite2000Non-adjustable
1084320216º19W3000K901833-Graphite2000Non-adjustable
1084320016º19W3000K901833-White2000Non-adjustable

Accessories

Assembly

Estás navegando en Inglés.
¿Quieres acceder a la versión en ?

You are browsing in English.
Do you want to switch to the version?

Vous naviguez en en.
Voulez-vous accéder à la version en ?

Estàs navegant en Anglès.
Vols accedir a la versió en ?

Llévame
Take me
Prends moi
Porta'm-hi